Home > Weather > Virudhunagar > Past weeks

Flag for India Past Weather in Virudhunagar, Tamil Nadu, India — Yesterday and Last 2 Weeks

Now
84 °F

Passing clouds.


Feels Like: 91 °F
Forecast: 76 / 93 °F
Wind: 7 mph from Southwest

Location: Tiruchchirapalli

Current Time: Jul 26, 2016 at 11:28:19 PM

Latest Report: Jul 26, 2016 at 10:30 PM


Visibility: 4 mi

Pressure: 29.74 "Hg

Humidity: 70%

Dew Point: 73 °F

Location of VirudhunagarLocation

Past Weather in Virudhunagar — Graph

°F

Virudhunagar Temperature Yesterday

Maximum temperature yesterday: 97 °F (at 2:30 PM)
Minimum temperature yesterday: 75 °F (at 10:30 PM)
Average temperature yesterday: 85 °F

High & Low Weather Summary for the Past Weeks

 TemperatureHumidityPressure
High100 °F (Jul 13, 2:00 PM)100% (Jul 17, 8:30 PM)29.86 "Hg (Jul 17, 8:30 PM)
Low73 °F (Jul 15, 10:00 PM)29% (Jul 14, 5:30 PM)29.56 "Hg (Jul 14, 4:30 PM)
Average86 °F61%29.72 "Hg
* Reported Jul 11 9:30 PM — Jul 26 10:00 PM, Virudhunagar, Weather by CustomWeather, © 2016

Note: Actual official high and low records may vary slightly from our data, if they occured in-between our weather recording intervals... More about our weather records

Advertising

Virudhunagar Weather History for the Previous 24 Hours

Scroll right to see more
 ConditionsComfort  
Time TempWeatherWind HumidityBarometerVisibility
10:00 PM
Tue, Jul 26
84 °FPassing clouds.9 mph79%29.74 "Hg4 mi
9:30 PM84 °FPassing clouds.12 mph79%29.74 "Hg4 mi
9:00 PM86 °FPassing clouds.10 mph75%29.74 "Hg4 mi
8:30 PM86 °FPassing clouds.10 mph75%29.74 "Hg4 mi
8:00 PM88 °FPassing clouds.8 mph62%29.71 "Hg4 mi
7:30 PM88 °FPassing clouds.12 mph62%29.68 "Hg4 mi
7:00 PM90 °FPassing clouds.5 mph59%29.65 "Hg4 mi
6:30 PM90 °FPassing clouds.3 mph59%29.65 "Hg4 mi
6:00 PM91 °FScattered clouds.3 mph56%29.65 "Hg4 mi
5:30 PM91 °FScattered clouds.5 mph56%29.65 "Hg4 mi
5:00 PM93 °FScattered clouds.2 mph53%29.65 "Hg5 mi
4:30 PM93 °FScattered clouds.3 mph53%29.65 "Hg5 mi
4:00 PM93 °FScattered clouds.3 mph53%29.65 "Hg5 mi
3:30 PM91 °FScattered clouds.2 mph56%29.65 "Hg5 mi
3:00 PM91 °FScattered clouds.3 mph59%29.65 "Hg5 mi
2:30 PM91 °FScattered clouds.3 mph59%29.68 "Hg5 mi
2:00 PM91 °FScattered clouds.6 mph59%29.68 "Hg5 mi
1:30 PM90 °FScattered clouds.8 mph63%29.68 "Hg5 mi
1:00 PM90 °FScattered clouds.8 mph63%29.68 "Hg5 mi
12:30 PM90 °FScattered clouds.6 mph63%29.71 "Hg5 mi
12:00 PM88 °FScattered clouds.7 mph66%29.71 "Hg5 mi
11:30 AM88 °FScattered clouds.7 mph66%29.71 "Hg5 mi
11:00 AM88 °FScattered clouds.7 mph62%29.74 "Hg5 mi
10:30 AM88 °FScattered clouds.8 mph66%29.74 "Hg5 mi
10:00 AM86 °FPassing clouds.8 mph70%29.74 "Hg5 mi
9:30 AM84 °FPassing clouds.8 mph74%29.74 "Hg4 mi
9:00 AM82 °FPassing clouds.8 mph79%29.74 "Hg4 mi
8:30 AM81 °FPassing clouds.10 mph84%29.74 "Hg4 mi
8:00 AM79 °FScattered clouds.7 mph79%29.71 "Hg4 mi
7:30 AM77 °FScattered clouds.7 mph89%29.71 "Hg4 mi
7:00 AM77 °FFog.7 mph89%29.71 "Hg3 mi
6:30 AM77 °FFog.5 mph89%29.71 "Hg2 mi
6:00 AM77 °FFog.5 mph89%29.71 "Hg2 mi
5:30 AM77 °FFog.7 mph89%29.71 "Hg2 mi
5:00 AM77 °FFog.5 mph94%29.71 "Hg2 mi
4:30 AM77 °FFog.6 mph94%29.71 "Hg2 mi
4:00 AM77 °FFog.7 mph89%29.71 "Hg2 mi
3:30 AM77 °FFog.7 mph89%29.71 "Hg2 mi
3:00 AM77 °FFog.7 mph89%29.71 "Hg2 mi
2:30 AM75 °FFog.7 mph94%29.71 "Hg2 mi
2:00 AM75 °FFog.6 mph94%29.71 "Hg2 mi
1:30 AM75 °FFog.6 mph94%29.71 "Hg2 mi
1:00 AM75 °FFog.5 mph94%29.74 "Hg2 mi
12:30 AM75 °FFog.5 mph94%29.74 "Hg2 mi
12:00 AM75 °FRain. Mostly cloudy.7 mph94%29.74 "Hg1 mi
11:30 PM
Mon, Jul 25
75 °FRain. Mostly cloudy.6 mph94%29.77 "Hg1 mi
11:00 PM75 °FThunderstorms. Mostly cloudy.7 mph100%29.77 "Hg1 mi
Weather by CustomWeather, © 2016

See weather overviewHow to use our weather pages